CubeBel-2 (EU11S)
1 57175U 23091K   26205.60318609  .00014666  00000-0  50662-3 0  9993
2 57175  97.5032 269.1722 0008560 352.4861   7.6249 15.30008087170020
RS-38S
1 57189U 23091Z   26205.59220680  .00018948  00000-0  52294-3 0  9997
2 57189  97.5074 275.8526 0005176 297.7671  62.3048 15.37118902170432
SONATE-2
1 59112U 24043Q   26205.40370302  .00055819  00000-0  65034-3 0  9994
2 59112  97.5563 358.1715 0006185  74.5722 285.6218 15.61487005133693
GRBBeta
1 60237U 24128C   26205.11807489  .00003929  00000-0  27273-3 0  9995
2 60237  61.9899  86.6723 0035834 142.6054 217.7543 15.06857326111835
Curium One
1 60242U 24128H   26205.12023852  .00009553  00000-0  54263-3 0  9994
2 60242  61.9790  74.9180 0035298 138.6275 221.7504 15.12969063112047
ROBUSTA-3A
1 60243U 24128J   26205.63528107  .00008871  00000-0  51667-3 0  9991
2 60243  61.9865  75.7731 0036700 136.0828 224.3195 15.12097575112086
CatSat
1 60246U 24125J   26205.32036687  .00100856  00000-0  10785-2 0  9995
2 60246  97.2058  58.4260 0018773  50.4932 309.7984 15.63339977113182
HYPERVIEW-1G (RS66S)
1 61772U 24199AP  26205.57215187  .00591588  13698-3  20028-2 0  9999
2 61772  97.2761  87.5153 0009131 136.9785 223.2204 15.89850407140589
AO-123
1 61781U 24199AY  26205.62596701  .00008757  00000-0  24999-3 0  9992
2 61781  97.2956  73.9626 0014081 166.5314 193.6309 15.36165872139677
JINJUSat 1B
1 63210U 25052A   26205.52172352  .00019974  00000-0  59731-3 0  9996
2 63210  97.3959 102.3478 0001932   0.1249 359.9994 15.34598955 75826
NUSHSAT 1
1 63211U 25052B   26205.43683030  .00026927  00000-0  73603-3 0  9997
2 63211  97.3933 102.9639 0001977  19.8035 340.3286 15.37355241 75867
TEVEL2-4
1 63213U 25052D   26205.26868346  .00025388  00000-0  72871-3 0  9991
2 63213  97.3856 101.7452 0002580  35.5168 324.6247 15.35840472 75805
TEVEL2-5
1 63214U 25052E   26205.22840864  .00024677  00000-0  71280-3 0  9996
2 63214  97.3853 101.6419 0002643  36.1272 324.0150 15.35646561 75796
TEVEL2-6
1 63215U 25052F   26205.43708029  .00023977  00000-0  69335-3 0  9996
2 63215  97.3858 101.8361 0002640  38.5243 321.6189 15.35618951 75822
TEVEL2-1
1 63217U 25052H   26204.50179324  .00019446  00000-0  57430-3 0  9994
2 63217  97.3829 100.4780 0003444  42.4513 317.6997 15.34995797 75668
TEVEL2-3
1 63218U 25052J   26205.40760620  .00023422  00000-0  68854-3 0  9991
2 63218  97.3838 101.4119 0003144  44.7861 315.3635 15.35102907 75808
TEVEL2-2
1 63219U 25052K   26204.95817675  .00018137  00000-0  53542-3 0  9999
2 63219  97.3831 100.9381 0003467  41.6997 318.4510 15.35023489 75736
TEVEL2-9
1 63237U 25052AD  26205.24531183  .00022256  00000-0  69959-3 0  9995
2 63237  97.3899 100.5171 0006704  31.4538 328.7104 15.32970805 75708
TEVEL2-7
1 63238U 25052AE  26205.22838057  .00021160  00000-0  67210-3 0  9995
2 63238  97.3894 100.4006 0006810  31.2470 328.9176 15.32647077 75692
TEVEL2-8
1 63239U 25052AF  26205.49814427  .00019094  00000-0  60702-3 0  9992
2 63239  97.3894 100.6458 0006821  31.2574 328.9072 15.32640555 75737
SPIRONE
1 66657U 25274H   26205.36904905  .00002092  00000-0  20310-3 0  9993
2 66657  97.7469 134.1313 0010399 248.3465 111.6648 14.93682753 35771
K-HERO
1 66660U 25274L   26205.36340620  .00002092  00000-0  20090-3 0  9990
2 66660  97.7479 134.3139 0012237 253.5280 106.4596 14.94088812 35782
SNUGLITE-III DURI
1 66661U 25274M   26205.55128819  .00001983  00000-0  19064-3 0  9993
2 66661  97.7475 134.5202 0012913 253.7848 106.1952 14.94113319 35813
SAKHACUBE-CHOLBON
1 67290U 25313AU  26205.16272981  .00011992  00000-0  47564-3 0  9990
2 67290  97.3918 279.7472 0008381 215.0994 144.9693 15.25490109 31614
RS95S (QMR-KWT-2)
1 67291U 25313AV  26205.17915248  .00018389  00000-0  69154-3 0  9998
2 67291  97.3917 280.0233 0008187 211.6604 148.4144 15.27168089 31631
Ten-Koh2
1 68261U 25241B   26205.19443932  .00008233  00000-0  34594-3 0  9991
2 68261  51.6558 143.4526 0004762 261.2398  98.8041 15.24254890 20552
JACK-002
1 68417U 26067B   26205.43166213  .00007893  00000-0  37157-3 0  9991
2 68417  97.4582 163.5774 0003662 118.1959 241.9646 15.19805177 17607
DISCO 2
1 68431U 26067R   26205.45940021  .00009063  00000-0  42890-3 0  9997
2 68431  97.4614 163.5950 0001727 155.3475 204.7843 15.19582452 17605
HADES-SA (SpinnyONE)
1 68446U 26067AG  26205.42447278  .00024719  00000-0  11394-2 0  9995
2 68446  97.4401 163.1993 0004585 329.5443  30.5526 15.20249111 17587
PARUS-6U1
1 68456U 26067AS  26205.43945966  .00006712  00000-0  33456-3 0  9991
2 68456  97.4567 163.2440 0003837 308.2686  51.8202 15.17871644 17586
SAL-E
1 68458U 26067AU  26205.42729542  .00009759  00000-0  47952-3 0  9992
2 68458  97.4490 163.1485 0004183 322.2255  37.8685 15.18248146 17589
FSI-SAT 2
1 68792U 26088A   26205.40330291  .00004377  00000-0  29508-3 0  9991
2 68792  97.5112 353.7443 0013664 347.2641  12.8239 15.07097490 13893
OrigamiSat 2
1 68795U 26088D   26205.35934689  .00014864  00000-0  92861-3 0  9993
2 68795  97.5105 353.9587 0013712 312.9159  47.0918 15.09483380 13901
ARICA 2
1 68796U 26088E   26205.37255605  .00004976  00000-0  32073-3 0  9992
2 68796  97.5097 353.9265 0014409 314.4086  45.5962 15.08682050 13901
WASEDA-SAT-ZERO-II
1 68797U 26088F   26205.36158963  .00007135  00000-0  45410-3 0  9990
2 68797  97.5098 353.9384 0014145 313.7533  46.2524 15.09006263 13900
MANGARO-II-Piscus
1 68798U 26088G   26205.41657644  .00004238  00000-0  27099-3 0  9991
2 68798  97.5112 354.0303 0017710 316.9426  43.0417 15.09016596 13915
IO-86
1 40931U          25360.30710720  .00000000  00000-0  12800-3 0    00
2 40931   6.0006 332.5373 0012733 338.8432   8.1437 14.79075515    01
LILIUM-4                
1 71922C 26067AC  26089.50133053 -.00014632  00000+0 -74472-3 0    04
2 71922  97.4497  49.1617 0004341   5.9603 355.7042 15.16896692    16
